GSAT-7

Last updated on Sun Oct 06 2024 00:02:40 GMT+0000 (Coordinated Universal Time)

1 39234U 13044B 24278.85396586 -.00000069 00000+0 00000+0 0 9990 2 39234 0.0763 92.8335 0008138 156.0780 146.5620 1.00272730 39037
UTC large
Height (km)
Speed (km/s)
/
Latitude / Longitude
Inclination (degrees)
Orbital Period (minutes)
Azimuth
Elevation
Range (km)
Doppler Factor

Next 0 passes for location: London (51.5072 / 0.1276)

Sorry there are no passes over London.